BEL6VF LFMN-EBBR

Flight info

Callsign BEL6VF
Flight time 1h 17m
Altitude 32000
Route IRMAR DCT KINES DCT VANAS DCT MOBLO DCT UBIMA DCT GILIR DCT PENDU DCT IXILU DCT GIVOR DCT SORAL DCT IBERA N853 DIK Y37 BATTY
Aircraft A319/M-SDE3FGHIRWY/LB1

Departure

Time 2026-05-06 08:31
Airport Nice-Côte d'Azur Airport (LFMN)

Arrival

Time 2026-05-06 09:49
Airport Brussels Airport (EBBR)
Time Latitude Longitude Altitude Speed Heading
2026-05-06 08:03 43.65892 7.20668 22 ft 0 kts 315°
2026-05-06 08:22 43.65880 7.20682 22 ft 4 kts 319°
2026-05-06 08:23 43.65861 7.20708 22 ft 4 kts 304°
2026-05-06 08:23 43.65850 7.20740 22 ft 4 kts 270°
2026-05-06 08:23 43.65856 7.20766 22 ft 1 kts 224°
2026-05-06 08:23 43.65859 7.20771 22 ft 0 kts 224°
2026-05-06 08:25 43.65857 7.20767 23 ft 2 kts 224°
2026-05-06 08:25 43.65835 7.20739 23 ft 10 kts 224°
2026-05-06 08:25 43.65774 7.20655 22 ft 13 kts 225°
2026-05-06 08:26 43.65707 7.20563 24 ft 14 kts 226°
2026-05-06 08:26 43.65634 7.20462 23 ft 15 kts 225°
2026-05-06 08:26 43.65556 7.20355 23 ft 16 kts 225°
2026-05-06 08:26 43.65485 7.20256 22 ft 13 kts 225°
2026-05-06 08:27 43.65457 7.20216 22 ft 1 kts 225°
2026-05-06 08:27 43.65438 7.20194 25 ft 7 kts 217°
2026-05-06 08:27 43.65391 7.20178 22 ft 8 kts 171°
2026-05-06 08:27 43.65339 7.20215 22 ft 9 kts 142°
2026-05-06 08:28 43.65291 7.20278 25 ft 10 kts 135°
2026-05-06 08:28 43.65239 7.20351 22 ft 12 kts 136°
2026-05-06 08:28 43.65171 7.20438 23 ft 14 kts 138°
2026-05-06 08:28 43.65081 7.20462 22 ft 14 kts 199°
2026-05-06 08:29 43.65003 7.20376 24 ft 15 kts 226°
2026-05-06 08:29 43.64927 7.20272 24 ft 16 kts 224°
2026-05-06 08:29 43.64850 7.20167 22 ft 13 kts 225°
2026-05-06 08:29 43.64779 7.20142 22 ft 11 kts 159°
2026-05-06 08:30 43.64722 7.20216 22 ft 12 kts 133°
2026-05-06 08:30 43.64718 7.20311 22 ft 12 kts 45°
2026-05-06 08:30 43.64752 7.20358 24 ft 0 kts 45°
2026-05-06 08:30 43.64756 7.20363 23 ft 4 kts 45°
2026-05-06 08:31 43.64956 7.20637 22 ft 82 kts 44°
2026-05-06 08:31 43.65530 7.21423 28 ft 147 kts 44°
2026-05-06 08:31 43.66278 7.22491 516 ft 159 kts 46°
2026-05-06 08:31 43.66770 7.23892 1260 ft 165 kts 78°
2026-05-06 08:32 43.66655 7.25455 1958 ft 169 kts 110°
2026-05-06 08:32 43.65976 7.26768 2662 ft 169 kts 135°
2026-05-06 08:32 43.65155 7.27940 3335 ft 172 kts 136°
2026-05-06 08:32 43.64281 7.29198 3762 ft 192 kts 138°
2026-05-06 08:33 43.63433 7.30766 4097 ft 221 kts 116°
2026-05-06 08:33 43.63244 7.32228 4367 ft 241 kts 90°
2026-05-06 08:33 43.63913 7.35195 5674 ft 242 kts 72°
2026-05-06 08:33 43.64312 7.36672 6358 ft 243 kts 73°
2026-05-06 08:34 43.65180 7.38801 6891 ft 272 kts 47°
2026-05-06 08:34 43.68911 7.40066 8207 ft 299 kts 340°
2026-05-06 08:34 43.70840 7.39077 9136 ft 301 kts 335°
2026-05-06 08:35 43.72829 7.37995 10069 ft 307 kts 335°
2026-05-06 08:35 43.74860 7.36873 10529 ft 330 kts 334°
2026-05-06 08:35 43.77073 7.35654 11180 ft 343 kts 334°
2026-05-06 08:35 43.79310 7.34435 12018 ft 349 kts 334°
2026-05-06 08:36 43.81581 7.33205 12868 ft 353 kts 334°
2026-05-06 08:36 43.83884 7.31960 13699 ft 357 kts 334°
2026-05-06 08:36 43.86214 7.30702 14522 ft 361 kts 334°
2026-05-06 08:36 43.88570 7.29431 15316 ft 365 kts 334°
2026-05-06 08:37 43.90946 7.28150 16077 ft 369 kts 334°
2026-05-06 08:37 43.93351 7.26853 16821 ft 373 kts 333°
2026-05-06 08:37 43.95774 7.25540 17517 ft 376 kts 333°
2026-05-06 08:37 43.98226 7.24206 18171 ft 380 kts 333°
2026-05-06 08:38 44.00675 7.22867 18871 ft 384 kts 333°
2026-05-06 08:38 44.03180 7.21500 19520 ft 390 kts 333°
2026-05-06 08:38 44.05718 7.20118 20107 ft 394 kts 333°
2026-05-06 08:38 44.08291 7.18714 20748 ft 399 kts 333°
2026-05-06 08:39 44.10889 7.17291 21403 ft 403 kts 333°
2026-05-06 08:39 44.13512 7.15849 22021 ft 407 kts 332°
2026-05-06 08:39 44.16156 7.14398 22618 ft 412 kts 332°
2026-05-06 08:39 44.18839 7.12933 23184 ft 415 kts 332°
2026-05-06 08:40 44.21536 7.11458 23710 ft 419 kts 332°
2026-05-06 08:40 44.24260 7.09966 24250 ft 422 kts 331°
2026-05-06 08:40 44.27008 7.08453 24738 ft 426 kts 331°
2026-05-06 08:40 44.29773 7.06927 25252 ft 429 kts 331°
2026-05-06 08:41 44.32553 7.05394 25769 ft 432 kts 331°
2026-05-06 08:41 44.35361 7.03845 26221 ft 435 kts 331°
2026-05-06 08:41 44.38184 7.02291 26709 ft 438 kts 331°
2026-05-06 08:41 44.41032 7.00724 27155 ft 442 kts 331°
2026-05-06 08:42 44.43903 6.99140 27596 ft 445 kts 331°
2026-05-06 08:42 44.46800 6.97537 28020 ft 447 kts 331°
2026-05-06 08:42 44.49704 6.95926 28399 ft 451 kts 331°
2026-05-06 08:42 44.52626 6.94303 28801 ft 453 kts 330°
2026-05-06 08:43 44.55565 6.92674 29196 ft 456 kts 330°
2026-05-06 08:43 44.58522 6.91037 29605 ft 459 kts 330°
2026-05-06 08:43 44.61501 6.89386 30024 ft 461 kts 330°
2026-05-06 08:43 44.64494 6.87721 30355 ft 464 kts 330°
2026-05-06 08:44 44.67502 6.86045 30750 ft 466 kts 330°
2026-05-06 08:44 44.70533 6.84352 31050 ft 469 kts 330°
2026-05-06 08:44 44.73574 6.82651 31334 ft 472 kts 330°
2026-05-06 08:44 44.76625 6.80938 31618 ft 474 kts 330°
2026-05-06 08:45 44.79768 6.79428 31833 ft 482 kts 340°
2026-05-06 08:45 44.83068 6.78757 31866 ft 476 kts 351°
2026-05-06 08:45 44.86324 6.78618 31864 ft 461 kts 352°
2026-05-06 08:46 44.92670 6.78273 31871 ft 453 kts 351°
2026-05-06 08:46 44.98954 6.77814 31870 ft 452 kts 351°
2026-05-06 08:47 45.05241 6.77374 31874 ft 453 kts 351°
2026-05-06 08:47 45.11508 6.76966 31877 ft 453 kts 351°
2026-05-06 08:48 45.17845 6.76552 31863 ft 452 kts 351°
2026-05-06 08:48 45.24098 6.76143 31867 ft 452 kts 351°
2026-05-06 08:49 45.30387 6.75718 31860 ft 452 kts 351°
2026-05-06 08:49 45.36677 6.75289 31864 ft 453 kts 351°
2026-05-06 08:50 45.42984 6.74874 31867 ft 454 kts 351°
2026-05-06 08:50 45.49270 6.74460 31864 ft 453 kts 351°
2026-05-06 08:51 45.55577 6.74027 31862 ft 452 kts 351°
2026-05-06 08:51 45.61872 6.73586 31867 ft 454 kts 352°
2026-05-06 08:52 45.68178 6.73162 31856 ft 452 kts 352°
2026-05-06 08:52 45.74476 6.72729 31877 ft 454 kts 352°
2026-05-06 08:53 45.80788 6.72285 31874 ft 454 kts 352°
2026-05-06 08:53 45.87080 6.71861 31867 ft 452 kts 352°
2026-05-06 08:54 45.93374 6.71429 31868 ft 453 kts 352°
2026-05-06 08:54 45.99674 6.70992 31871 ft 453 kts 352°
2026-05-06 08:55 46.05962 6.70567 31869 ft 452 kts 352°
2026-05-06 08:55 46.12224 6.69934 31873 ft 447 kts 344°
2026-05-06 08:56 46.18116 6.67464 31872 ft 439 kts 334°
2026-05-06 08:56 46.23897 6.64647 31871 ft 438 kts 335°
2026-05-06 08:57 46.29676 6.61839 31868 ft 439 kts 335°
2026-05-06 08:57 46.35474 6.59019 31862 ft 440 kts 335°
2026-05-06 08:58 46.41264 6.56192 31854 ft 439 kts 335°
2026-05-06 08:58 46.47057 6.53352 31867 ft 439 kts 335°
2026-05-06 08:59 46.52847 6.50504 31863 ft 439 kts 335°
2026-05-06 08:59 46.58635 6.47654 31866 ft 439 kts 335°
2026-05-06 09:00 46.64410 6.44803 31868 ft 439 kts 335°
2026-05-06 09:00 46.70163 6.41964 31871 ft 438 kts 335°
2026-05-06 09:01 46.75967 6.39091 31862 ft 437 kts 335°
2026-05-06 09:01 46.81721 6.36226 31861 ft 437 kts 335°
2026-05-06 09:02 46.87435 6.33379 31861 ft 437 kts 335°
2026-05-06 09:02 46.93182 6.30522 31848 ft 436 kts 335°
2026-05-06 09:03 46.98922 6.27652 31856 ft 435 kts 335°
2026-05-06 09:03 47.04648 6.24772 31849 ft 435 kts 335°
2026-05-06 09:04 47.10125 6.21209 31847 ft 429 kts 328°
2026-05-06 09:04 47.15488 6.17340 31840 ft 428 kts 328°
2026-05-06 09:05 47.20831 6.13478 31834 ft 428 kts 328°
2026-05-06 09:05 47.26172 6.09601 31837 ft 428 kts 328°
2026-05-06 09:06 47.31528 6.05741 31832 ft 429 kts 331°
2026-05-06 09:06 47.37340 6.03488 31831 ft 438 kts 352°
2026-05-06 09:07 47.43431 6.03455 31833 ft 440 kts 358°
2026-05-06 09:07 47.49600 6.03593 31832 ft 440 kts 358°
2026-05-06 09:08 47.55722 6.03720 31833 ft 439 kts 358°
2026-05-06 09:08 47.61836 6.03859 31834 ft 439 kts 359°
2026-05-06 09:09 47.67902 6.03994 31829 ft 439 kts 359°
2026-05-06 09:09 47.74006 6.04330 31827 ft 439 kts
2026-05-06 09:10 47.79965 6.06397 31828 ft 440 kts 13°
2026-05-06 09:10 47.85909 6.08618 31825 ft 440 kts 13°
2026-05-06 09:11 47.91852 6.10838 31825 ft 440 kts 13°
2026-05-06 09:11 47.96789 6.12704 31824 ft 440 kts 13°
2026-05-06 09:12 48.02722 6.14951 31821 ft 440 kts 13°
2026-05-06 09:12 48.08656 6.17202 31814 ft 440 kts 14°
2026-05-06 09:13 48.14585 6.19449 31813 ft 440 kts 14°
2026-05-06 09:13 48.20508 6.21696 31811 ft 439 kts 14°
2026-05-06 09:14 48.26433 6.23951 31801 ft 439 kts 14°
2026-05-06 09:14 48.32349 6.26226 31801 ft 439 kts 14°
2026-05-06 09:15 48.38267 6.28505 31797 ft 438 kts 14°
2026-05-06 09:15 48.44172 6.30766 31802 ft 439 kts 14°
2026-05-06 09:16 48.50086 6.33042 31801 ft 438 kts 14°
2026-05-06 09:16 48.55992 6.35320 31804 ft 438 kts 14°
2026-05-06 09:17 48.61894 6.37608 31801 ft 438 kts 14°
2026-05-06 09:17 48.67853 6.39367 31801 ft 436 kts
2026-05-06 09:18 48.73908 6.39962 31799 ft 436 kts
2026-05-06 09:18 48.79956 6.40569 31802 ft 435 kts
2026-05-06 09:19 48.85996 6.41187 31806 ft 435 kts
2026-05-06 09:19 48.92028 6.41803 31803 ft 434 kts
2026-05-06 09:20 48.98060 6.42427 31803 ft 434 kts
2026-05-06 09:20 49.04083 6.43034 31804 ft 434 kts
2026-05-06 09:21 49.10101 6.43505 31809 ft 431 kts 355°
2026-05-06 09:21 49.15931 6.41916 31805 ft 425 kts 341°
2026-05-06 09:22 49.21638 6.39567 31802 ft 424 kts 341°
2026-05-06 09:22 49.27335 6.37220 31801 ft 424 kts 341°
2026-05-06 09:23 49.32992 6.34901 31794 ft 423 kts 341°
2026-05-06 09:23 49.38675 6.32558 31792 ft 423 kts 341°
2026-05-06 09:24 49.44349 6.30212 31787 ft 422 kts 341°
2026-05-06 09:24 49.50019 6.27858 31783 ft 421 kts 341°
2026-05-06 09:25 49.55685 6.25517 31729 ft 422 kts 342°
2026-05-06 09:25 49.58516 6.24362 31469 ft 421 kts 342°
2026-05-06 09:25 49.61358 6.23206 31218 ft 422 kts 342°
2026-05-06 09:25 49.64197 6.22045 30969 ft 422 kts 341°
2026-05-06 09:26 49.67041 6.20875 30719 ft 423 kts 341°
2026-05-06 09:26 49.69885 6.19705 30470 ft 423 kts 341°
2026-05-06 09:26 49.72723 6.18533 30220 ft 421 kts 341°
2026-05-06 09:26 49.75560 6.17360 29968 ft 421 kts 341°
2026-05-06 09:27 49.78375 6.16199 29718 ft 419 kts 341°
2026-05-06 09:27 49.81191 6.15042 29469 ft 417 kts 341°
2026-05-06 09:27 49.83992 6.13885 29218 ft 414 kts 341°
2026-05-06 09:27 49.86768 6.12738 28976 ft 412 kts 341°
2026-05-06 09:28 49.89522 6.11679 28718 ft 411 kts 343°
2026-05-06 09:28 49.92301 6.10697 28465 ft 409 kts 343°
2026-05-06 09:28 49.95082 6.09760 28219 ft 407 kts 344°
2026-05-06 09:28 49.97844 6.08837 27966 ft 405 kts 344°
2026-05-06 09:29 50.00581 6.07906 27716 ft 402 kts 343°
2026-05-06 09:29 50.03307 6.06964 27462 ft 400 kts 343°
2026-05-06 09:29 50.06023 6.06011 27212 ft 398 kts 343°
2026-05-06 09:29 50.08714 6.05053 26969 ft 395 kts 343°
2026-05-06 09:30 50.11389 6.04095 26712 ft 393 kts 343°
2026-05-06 09:30 50.14054 6.03144 26463 ft 392 kts 343°
2026-05-06 09:30 50.16704 6.02203 26214 ft 389 kts 343°
2026-05-06 09:30 50.19322 6.01276 25876 ft 384 kts 343°
2026-05-06 09:31 50.21925 6.00351 25409 ft 382 kts 343°
2026-05-06 09:31 50.24508 5.99430 24955 ft 379 kts 343°
2026-05-06 09:31 50.27077 5.98513 24465 ft 378 kts 343°
2026-05-06 09:31 50.29632 5.97599 23983 ft 375 kts 343°
2026-05-06 09:32 50.32168 5.96688 23489 ft 373 kts 343°
2026-05-06 09:32 50.34703 5.95778 22995 ft 372 kts 343°
2026-05-06 09:32 50.37223 5.94874 22510 ft 370 kts 343°
2026-05-06 09:32 50.39694 5.93986 22031 ft 368 kts 343°
2026-05-06 09:33 50.42187 5.93091 21554 ft 366 kts 343°
2026-05-06 09:33 50.44667 5.92198 21066 ft 365 kts 343°
2026-05-06 09:33 50.47130 5.91314 20596 ft 363 kts 343°
2026-05-06 09:33 50.49593 5.90431 20116 ft 361 kts 343°
2026-05-06 09:34 50.52038 5.89553 19664 ft 359 kts 344°
2026-05-06 09:34 50.54459 5.88680 19208 ft 357 kts 344°
2026-05-06 09:34 50.56883 5.87805 18757 ft 355 kts 344°
2026-05-06 09:34 50.59280 5.86938 18307 ft 353 kts 344°
2026-05-06 09:35 50.61654 5.86005 17861 ft 349 kts 338°
2026-05-06 09:35 50.63802 5.84324 17443 ft 342 kts 322°
2026-05-06 09:35 50.65560 5.81875 17017 ft 335 kts 307°
2026-05-06 09:35 50.66850 5.78885 16624 ft 328 kts 294°
2026-05-06 09:36 50.67877 5.75697 16223 ft 325 kts 294°
2026-05-06 09:36 50.68903 5.72512 15817 ft 324 kts 294°
2026-05-06 09:36 50.69919 5.69356 15431 ft 322 kts 294°
2026-05-06 09:36 50.70929 5.66216 15037 ft 320 kts 294°
2026-05-06 09:37 50.71935 5.63087 14657 ft 318 kts 294°
2026-05-06 09:37 50.72934 5.59977 14277 ft 316 kts 294°
2026-05-06 09:37 50.73925 5.56885 13879 ft 315 kts 294°
2026-05-06 09:37 50.74897 5.53833 13493 ft 314 kts 294°
2026-05-06 09:38 50.75874 5.50752 13102 ft 312 kts 294°
2026-05-06 09:38 50.76846 5.47699 12708 ft 311 kts 295°
2026-05-06 09:38 50.77819 5.44646 12312 ft 309 kts 295°
2026-05-06 09:38 50.78781 5.41620 11921 ft 308 kts 295°
2026-05-06 09:39 50.79744 5.38593 11512 ft 306 kts 295°
2026-05-06 09:39 50.80693 5.35607 11121 ft 304 kts 295°
2026-05-06 09:39 50.81634 5.32639 10857 ft 297 kts 295°
2026-05-06 09:39 50.82560 5.29703 10398 ft 298 kts 295°
2026-05-06 09:40 50.83479 5.26793 9996 ft 296 kts 295°
2026-05-06 09:40 50.84396 5.23885 9669 ft 292 kts 296°
2026-05-06 09:40 50.86196 5.18145 8831 ft 290 kts 296°
2026-05-06 09:41 50.87093 5.15298 8424 ft 289 kts 296°
2026-05-06 09:41 50.88049 5.12517 8008 ft 287 kts 303°
2026-05-06 09:41 50.89126 5.09865 7601 ft 285 kts 302°
2026-05-06 09:41 50.90185 5.07240 7209 ft 281 kts 302°
2026-05-06 09:42 50.91218 5.04666 6813 ft 278 kts 302°
2026-05-06 09:42 50.92266 5.02050 6390 ft 276 kts 303°
2026-05-06 09:42 50.93276 4.99523 5950 ft 274 kts 303°
2026-05-06 09:42 50.94294 4.96972 5508 ft 273 kts 303°
2026-05-06 09:43 50.95313 4.94423 5248 ft 264 kts 304°
2026-05-06 09:43 50.96272 4.92027 5117 ft 251 kts 304°
2026-05-06 09:43 50.97125 4.89643 4844 ft 245 kts 293°
2026-05-06 09:43 50.97465 4.87066 4604 ft 241 kts 273°
2026-05-06 09:44 50.97235 4.84459 4318 ft 240 kts 253°
2026-05-06 09:44 50.96671 4.81989 4001 ft 236 kts 251°
2026-05-06 09:44 50.96120 4.79550 3707 ft 234 kts 252°
2026-05-06 09:44 50.95571 4.77131 3390 ft 230 kts 252°
2026-05-06 09:45 50.95050 4.74849 3138 ft 209 kts 252°
2026-05-06 09:45 50.94577 4.72776 2838 ft 192 kts 252°
2026-05-06 09:45 50.94150 4.70906 2594 ft 169 kts 250°
2026-05-06 09:45 50.93773 4.69250 2382 ft 152 kts 249°
2026-05-06 09:46 50.93429 4.67743 2186 ft 141 kts 247°
2026-05-06 09:46 50.93102 4.66312 2008 ft 136 kts 246°
2026-05-06 09:46 50.92787 4.64934 1832 ft 131 kts 246°
2026-05-06 09:46 50.92481 4.63597 1671 ft 127 kts 246°
2026-05-06 09:47 50.92183 4.62294 1500 ft 124 kts 248°
2026-05-06 09:47 50.91889 4.61009 1326 ft 125 kts 253°
2026-05-06 09:47 50.91587 4.59696 1163 ft 128 kts 253°
2026-05-06 09:47 50.91284 4.58381 996 ft 127 kts 252°
2026-05-06 09:48 50.90980 4.57060 829 ft 127 kts 252°
2026-05-06 09:48 50.90678 4.55748 661 ft 127 kts 252°
2026-05-06 09:48 50.90378 4.54442 489 ft 125 kts 252°
2026-05-06 09:48 50.90079 4.53142 325 ft 126 kts 252°
2026-05-06 09:49 50.89784 4.51838 179 ft 125 kts 252°
2026-05-06 09:49 50.89512 4.50649 145 ft 98 kts 250°
2026-05-06 09:49 50.89376 4.50057 149 ft 32 kts 251°
2026-05-06 09:49 50.89330 4.49809 148 ft 15 kts 272°
2026-05-06 09:50 50.89375 4.49664 145 ft 14 kts 305°
2026-05-06 09:50 50.89438 4.49530 143 ft 16 kts 308°
2026-05-06 09:50 50.89486 4.49433 140 ft 16 kts 308°
2026-05-06 09:50 50.89549 4.49303 142 ft 9 kts 307°
2026-05-06 09:51 50.89579 4.49241 143 ft 5 kts 307°
2026-05-06 09:51 50.89598 4.49202 143 ft 4 kts 307°
2026-05-06 09:51 50.89626 4.49154 144 ft 8 kts 328°
2026-05-06 09:51 50.89664 4.49153 144 ft 9 kts 14°
2026-05-06 09:52 50.89754 4.49191 145 ft 11 kts 12°
2026-05-06 09:52 50.89830 4.49221 147 ft 12 kts 15°
2026-05-06 09:52 50.89889 4.49246 146 ft 15 kts 15°
2026-05-06 09:52 50.90004 4.49292 143 ft 19 kts 14°
2026-05-06 09:53 50.90137 4.49345 141 ft 21 kts 14°
2026-05-06 09:53 50.90284 4.49406 138 ft 22 kts 14°
2026-05-06 09:53 50.90406 4.49428 134 ft 16 kts 326°
2026-05-06 09:53 50.90390 4.49278 136 ft 14 kts 247°
2026-05-06 09:54 50.90420 4.49150 135 ft 11 kts 301°
2026-05-06 09:54 50.90446 4.49093 134 ft 0 kts 310°